Total_Precipitation_Accumulation
0.58 0.83 1.16 1.55 2.06 2.65 3.12 3.14 2.52 2.02 1.71 1.43 1.07 0.91 0.88 0.80 0.71 0.69 0.64 0.61 0.56 0.52 0.47 0.41 0.39 0.35 0.34 0.36 0.38 0.46 0.53 0.56 0.62 0.68 0.62 0.53 0.45 0.41 0.40 0.35 0.30 0.32 0.42
0.82 1.12 1.47 1.62 1.54 1.66 1.75 1.38 1.10 0.92 0.78 0.68 0.51 0.41 0.37 0.35 0.34 0.35 0.35 0.33 0.37 0.40 0.39 0.37 0.36 0.34 0.33 0.31 0.34 0.39 0.42 0.45 0.51 0.54 0.48 0.40 0.36 0.30 0.23 0.26 0.25 0.24 0.37
1.37 1.53 1.36 1.15 1.07 1.04 0.90 0.61 0.47 0.47 0.41 0.33 0.25 0.22 0.21 0.21 0.21 0.22 0.22 0.22 0.23 0.26 0.29 0.33 0.36 0.35 0.31 0.29 0.30 0.32 0.32 0.32 0.35 0.41 0.41 0.33 0.25 0.21 0.20 0.22 0.22 0.22 0.27
1.60 1.39 0.75 0.47 0.46 0.47 0.48 0.51 0.52 0.41 0.30 0.26 0.19 0.14 0.13 0.13 0.13 0.15 0.15 0.17 0.16 0.16 0.18 0.24 0.29 0.30 0.31 0.30 0.24 0.24 0.29 0.29 0.26 0.27 0.30 0.25 0.23 0.24 0.23 0.22 0.23 0.26 0.25
0.83 0.47 0.19 0.13 0.18 0.28 0.47 0.68 0.66 0.45 0.31 0.27 0.23 0.21 0.19 0.18 0.17 0.17 0.18 0.20 0.20 0.20 0.17 0.17 0.22 0.27 0.33 0.38 0.34 0.31 0.29 0.27 0.23 0.23 0.29 0.27 0.20 0.21 0.24 0.23 0.22 0.24 0.17
0.32 0.16 0.10 0.14 0.21 0.26 0.33 0.42 0.49 0.56 0.51 0.46 0.37 0.34 0.33 0.31 0.28 0.26 0.25 0.25 0.26 0.28 0.27 0.27 0.30 0.33 0.33 0.34 0.36 0.39 0.37 0.35 0.31 0.24 0.26 0.38 0.33 0.20 0.22 0.22 0.24 0.22 0.10
0.16 0.18 0.19 0.22 0.19 0.16 0.15 0.15 0.19 0.29 0.36 0.40 0.42 0.42 0.41 0.36 0.32 0.28 0.24 0.27 0.25 0.27 0.29 0.29 0.33 0.37 0.37 0.34 0.32 0.33 0.38 0.44 0.43 0.33 0.25 0.28 0.39 0.33 0.24 0.22 0.19 0.19 0.16
0.05 0.07 0.09 0.08 0.07 0.07 0.07 0.07 0.07 0.08 0.11 0.14 0.18 0.22 0.28 0.27 0.26 0.30 0.24 0.25 0.29 0.29 0.27 0.25 0.25 0.27 0.31 0.32 0.29 0.26 0.27 0.33 0.42 0.44 0.44 0.40 0.33 0.40 0.32 0.24 0.23 0.24 0.27
0.01 0.01 0.02 0.03 0.04 0.03 0.04 0.04 0.04 0.04 0.04 0.05 0.05 0.06 0.11 0.15 0.16 0.17 0.16 0.17 0.24 0.26 0.24 0.22 0.20 0.19 0.22 0.26 0.27 0.25 0.26 0.26 0.28 0.36 0.48 0.50 0.40 0.37 0.36 0.33 0.34 0.42 0.37
0.01 0.00 0.01 0.01 0.01 0.02 0.02 0.03 0.04 0.03 0.03 0.02 0.02 0.02 0.04 0.08 0.10 0.11 0.12 0.15 0.18 0.21 0.19 0.16 0.13 0.13 0.14 0.16 0.20 0.23 0.27 0.32 0.35 0.36 0.42 0.53 0.57 0.50 0.47 0.46 0.47 0.55 0.51
0.00 0.01 0.00 0.00 0.01 0.01 0.01 0.02 0.02 0.02 0.02 0.02 0.01 0.01 0.01 0.02 0.06 0.10 0.15 0.18 0.19 0.20 0.19 0.16 0.14 0.11 0.11 0.13 0.16 0.20 0.25 0.32 0.41 0.49 0.50 0.49 0.60 0.68 0.64 0.62 0.61 0.62 0.63
0.00 0.00 0.00 0.00 0.01 0.01 0.01 0.01 0.01 0.01 0.01 0.00 0.00 0.00 0.00 0.00 0.01 0.03 0.08 0.14 0.19 0.20 0.20 0.18 0.16 0.11 0.09 0.10 0.12 0.14 0.19 0.27 0.37 0.53 0.68 0.70 0.65 0.63 0.62 0.62 0.63 0.66 0.74
0.00 0.00 0.00 0.00 0.00 0.00 0.00 0.00 0.00 0.00 0.00 0.00 0.00 0.00 0.00 0.01 0.01 0.01 0.01 0.03 0.09 0.15 0.18 0.18 0.17 0.15 0.13 0.11 0.10 0.11 0.13 0.18 0.23 0.36 0.59 0.77 0.90 0.82 0.64 0.55 0.54 0.61 0.74
0.00 0.00 0.00 0.00 0.00 0.00 0.00 0.00 0.00 0.00 0.00 0.00 0.00 0.00 0.01 0.02 0.03 0.03 0.03 0.03 0.04 0.08 0.13 0.17 0.19 0.18 0.16 0.14 0.12 0.12 0.13 0.13 0.16 0.23 0.33 0.46 0.66 0.82 0.87 0.74 0.61 0.61 0.68
0.00 0.00 0.00 0.00 0.00 0.00 0.00 0.00 0.00 0.00 0.00 0.01 0.01 0.01 0.01 0.02 0.03 0.04 0.05 0.06 0.06 0.07 0.13 0.19 0.21 0.20 0.18 0.12 0.13 0.16 0.14 0.15 0.15 0.18 0.22 0.25 0.33 0.46 0.62 0.74 0.79 0.75 0.69
0.00 0.00 0.00 0.00 0.00 0.00 0.00 0.00 0.00 0.00 0.01 0.01 0.02 0.02 0.03 0.04 0.05 0.05 0.05 0.07 0.08 0.12 0.15 0.19 0.23 0.23 0.17 0.12 0.11 0.13 0.16 0.20 0.24 0.24 0.22 0.20 0.20 0.24 0.34 0.46 0.60 0.74 0.77
0.00 0.00 0.00 0.00 0.00 0.00 0.00 0.01 0.01 0.01 0.01 0.01 0.02 0.02 0.04 0.06 0.07 0.07 0.08 0.11 0.14 0.17 0.18 0.19 0.27 0.31 0.30 0.21 0.13 0.10 0.15 0.21 0.26 0.30 0.31 0.21 0.13 0.17 0.21 0.28 0.36 0.45 0.57
0.00 0.00 0.00 0.00 0.00 0.00 0.00 0.01 0.01 0.01 0.02 0.02 0.02 0.04 0.06 0.07 0.09 0.12 0.15 0.18 0.21 0.21 0.21 0.22 0.27 0.36 0.36 0.30 0.21 0.14 0.16 0.23 0.26 0.30 0.31 0.28 0.21 0.20 0.21 0.24 0.25 0.28 0.33
0.00 0.00 0.00 0.00 0.00 0.00 0.01 0.01 0.02 0.02 0.02 0.03 0.05 0.07 0.09 0.13 0.16 0.18 0.22 0.25 0.27 0.24 0.23 0.23 0.26 0.35 0.40 0.35 0.25 0.21 0.22 0.26 0.28 0.30 0.32 0.33 0.28 0.21 0.18 0.23 0.23 0.24 0.26
0.00 0.00 0.00 0.00 0.00 0.02 0.03 0.03 0.04 0.05 0.06 0.07 0.08 0.10 0.14 0.19 0.23 0.27 0.31 0.33 0.34 0.29 0.26 0.22 0.25 0.30 0.42 0.41 0.28 0.24 0.25 0.30 0.33 0.42 0.44 0.41 0.37 0.30 0.19 0.20 0.22 0.21 0.21
0.00 0.00 0.00 0.00 0.01 0.03 0.06 0.08 0.09 0.10 0.10 0.11 0.11 0.13 0.17 0.22 0.24 0.28 0.31 0.34 0.34 0.33 0.31 0.28 0.28 0.30 0.35 0.41 0.31 0.26 0.30 0.35 0.42 0.50 0.59 0.54 0.44 0.32 0.23 0.20 0.22 0.19 0.22
0.00 0.00 0.00 0.01 0.02 0.05 0.09 0.12 0.13 0.11 0.11 0.12 0.13 0.15 0.16 0.17 0.17 0.24 0.28 0.32 0.36 0.35 0.33 0.31 0.30 0.32 0.29 0.28 0.31 0.23 0.22 0.30 0.44 0.57 0.72 0.75 0.63 0.46 0.32 0.25 0.22 0.19 0.19
0.00 0.00 0.00 0.02 0.03 0.06 0.11 0.13 0.12 0.12 0.12 0.13 0.14 0.14 0.15 0.17 0.22 0.29 0.31 0.33 0.36 0.34 0.29 0.27 0.31 0.35 0.34 0.26 0.22 0.19 0.14 0.19 0.37 0.54 0.77 0.86 0.75 0.62 0.48 0.37 0.30 0.23 0.19
0.00 0.01 0.02 0.05 0.06 0.07 0.08 0.10 0.11 0.14 0.17 0.18 0.17 0.17 0.19 0.21 0.26 0.34 0.37 0.40 0.39 0.34 0.28 0.25 0.30 0.33 0.34 0.29 0.25 0.24 0.18 0.19 0.31 0.39 0.53 0.69 0.75 0.69 0.62 0.51 0.38 0.29 0.24
0.01 0.03 0.06 0.09 0.09 0.08 0.07 0.08 0.12 0.20 0.25 0.25 0.23 0.22 0.23 0.25 0.27 0.32 0.36 0.33 0.33 0.26 0.22 0.24 0.31 0.34 0.34 0.28 0.23 0.30 0.32 0.31 0.35 0.37 0.49 0.63 0.72 0.73 0.70 0.65 0.53 0.40 0.34
0.04 0.08 0.12 0.13 0.11 0.08 0.07 0.09 0.15 0.24 0.33 0.32 0.26 0.24 0.24 0.28 0.30 0.30 0.31 0.25 0.16 0.13 0.12 0.12 0.16 0.21 0.19 0.12 0.09 0.14 0.19 0.20 0.22 0.28 0.45 0.58 0.70 0.77 0.78 0.76 0.67 0.54 0.43